EWG70X EDDH-LIRF

Flight info

Callsign EWG70X
Flight time 1h 40m
Altitude 35000
Route AMLUH3B AMLUH M852 DENIX DCT ZUCKA DCT EXITI DCT BERAS M736 LIZUM N503 LIKDA DCT BAKOR DCT VESAL DCT GAVRA DCT RITEB
Aircraft A321/M-SDE3FGHIRWY/LB1

Departure

Time 2026-02-20 08:38
Airport Hamburg Helmut Schmidt Airport (EDDH)

Arrival

Time 2026-02-20 10:19
Airport Rome–Fiumicino Leonardo da Vinci International Airport (LIRF)
Time Latitude Longitude Altitude Speed Heading
2026-02-20 08:22 53.62928 10.00283 51 ft 0 kts 121°
2026-02-20 08:30 53.62929 10.00281 51 ft 2 kts 121°
2026-02-20 08:31 53.62939 10.00255 47 ft 3 kts 121°
2026-02-20 08:31 53.62948 10.00228 47 ft 3 kts 121°
2026-02-20 08:31 53.62958 10.00201 48 ft 3 kts 121°
2026-02-20 08:31 53.62965 10.00182 49 ft 2 kts 117°
2026-02-20 08:32 53.62971 10.00152 46 ft 3 kts 89°
2026-02-20 08:32 53.62968 10.00122 45 ft 3 kts 61°
2026-02-20 08:32 53.62957 10.00097 49 ft 0 kts 32°
2026-02-20 08:34 53.62957 10.00098 49 ft 0 kts 32°
2026-02-20 08:34 53.62965 10.00107 47 ft 2 kts 32°
2026-02-20 08:35 53.63030 10.00177 51 ft 13 kts 34°
2026-02-20 08:35 53.63124 10.00225 51 ft 15 kts 355°
2026-02-20 08:35 53.63235 10.00211 51 ft 17 kts 356°
2026-02-20 08:36 53.63351 10.00197 51 ft 16 kts 356°
2026-02-20 08:36 53.63432 10.00187 51 ft 2 kts 356°
2026-02-20 08:36 53.63455 10.00184 51 ft 4 kts 356°
2026-02-20 08:36 53.63492 10.00175 51 ft 6 kts 342°
2026-02-20 08:37 53.63532 10.00126 51 ft 8 kts 318°
2026-02-20 08:37 53.63578 10.00058 51 ft 10 kts 318°
2026-02-20 08:37 53.63602 9.99967 52 ft 9 kts 253°
2026-02-20 08:37 53.63554 9.99865 51 ft 16 kts 230°
2026-02-20 08:38 53.63332 9.99421 51 ft 87 kts 229°
2026-02-20 08:38 53.62795 9.98338 51 ft 151 kts 230°
2026-02-20 08:38 53.62057 9.96851 542 ft 167 kts 226°
2026-02-20 08:38 53.61340 9.95348 1451 ft 167 kts 222°
2026-02-20 08:39 53.60593 9.93784 2068 ft 174 kts 221°
2026-02-20 08:39 53.59810 9.92164 2532 ft 184 kts 222°
2026-02-20 08:39 53.58974 9.90450 3022 ft 194 kts 222°
2026-02-20 08:39 53.58092 9.88674 3625 ft 201 kts 222°
2026-02-20 08:40 53.57158 9.86942 4387 ft 194 kts 210°
2026-02-20 08:40 53.55954 9.86275 5172 ft 181 kts 177°
2026-02-20 08:40 53.54745 9.86803 5853 ft 184 kts 154°
2026-02-20 08:40 53.53734 9.88142 6500 ft 190 kts 144°
2026-02-20 08:41 53.52692 9.89610 6978 ft 199 kts 146°
2026-02-20 08:41 53.51767 9.91421 7498 ft 214 kts 123°
2026-02-20 08:41 53.51399 9.93990 7797 ft 245 kts 98°
2026-02-20 08:41 53.51350 9.96992 8078 ft 268 kts 97°
2026-02-20 08:42 53.51322 10.00147 8634 ft 277 kts 95°
2026-02-20 08:42 53.51246 10.03405 9305 ft 280 kts 103°
2026-02-20 08:42 53.50711 10.06537 9999 ft 279 kts 118°
2026-02-20 08:42 53.49833 10.09491 10528 ft 289 kts 120°
2026-02-20 08:43 53.48891 10.12578 10687 ft 311 kts 120°
2026-02-20 08:43 53.47865 10.15923 10876 ft 330 kts 120°
2026-02-20 08:43 53.46800 10.19406 11366 ft 338 kts 120°
2026-02-20 08:43 53.45717 10.22955 11950 ft 343 kts 120°
2026-02-20 08:44 53.44567 10.26493 12522 ft 347 kts 127°
2026-02-20 08:44 53.43064 10.29601 13097 ft 347 kts 139°
2026-02-20 08:44 53.41176 10.32126 13678 ft 347 kts 152°
2026-02-20 08:44 53.39009 10.33923 14251 ft 347 kts 163°
2026-02-20 08:45 53.36680 10.35048 14776 ft 349 kts 168°
2026-02-20 08:45 53.34313 10.36098 15309 ft 353 kts 168°
2026-02-20 08:45 53.31919 10.37170 15845 ft 357 kts 168°
2026-02-20 08:45 53.29530 10.38246 16385 ft 361 kts 168°
2026-02-20 08:46 53.27081 10.39349 16919 ft 365 kts 168°
2026-02-20 08:46 53.24612 10.40456 17432 ft 369 kts 168°
2026-02-20 08:46 53.22146 10.41558 17944 ft 373 kts 168°
2026-02-20 08:46 53.19616 10.42686 18462 ft 377 kts 168°
2026-02-20 08:47 53.17068 10.43819 18925 ft 380 kts 168°
2026-02-20 08:47 53.14490 10.44965 19387 ft 383 kts 168°
2026-02-20 08:47 53.11894 10.46078 19836 ft 386 kts 170°
2026-02-20 08:47 53.09290 10.47018 20285 ft 388 kts 172°
2026-02-20 08:48 53.06625 10.47849 20733 ft 390 kts 173°
2026-02-20 08:48 53.03935 10.48623 21194 ft 393 kts 174°
2026-02-20 08:48 53.01227 10.49390 21638 ft 396 kts 174°
2026-02-20 08:48 52.98496 10.50176 22086 ft 399 kts 174°
2026-02-20 08:49 52.95748 10.50990 22512 ft 402 kts 173°
2026-02-20 08:49 52.93022 10.51822 22935 ft 404 kts 173°
2026-02-20 08:49 52.90232 10.52693 23371 ft 407 kts 173°
2026-02-20 08:49 52.87427 10.53572 23811 ft 410 kts 173°
2026-02-20 08:50 52.84644 10.54441 24136 ft 413 kts 173°
2026-02-20 08:50 52.81797 10.55327 24433 ft 418 kts 173°
2026-02-20 08:50 52.78925 10.56213 24720 ft 422 kts 173°
2026-02-20 08:50 52.76021 10.57106 25001 ft 426 kts 173°
2026-02-20 08:51 52.73082 10.58009 25282 ft 431 kts 173°
2026-02-20 08:51 52.70112 10.58921 25562 ft 435 kts 173°
2026-02-20 08:51 52.67119 10.59841 25846 ft 439 kts 173°
2026-02-20 08:51 52.64094 10.60771 26117 ft 443 kts 172°
2026-02-20 08:52 52.61047 10.61705 26386 ft 447 kts 172°
2026-02-20 08:52 52.58014 10.62630 26653 ft 451 kts 172°
2026-02-20 08:52 52.54914 10.63572 26929 ft 455 kts 172°
2026-02-20 08:52 52.51783 10.64519 27190 ft 459 kts 172°
2026-02-20 08:53 52.48629 10.65475 27460 ft 463 kts 172°
2026-02-20 08:53 52.45451 10.66437 27717 ft 467 kts 172°
2026-02-20 08:53 52.42246 10.67408 27977 ft 470 kts 172°
2026-02-20 08:53 52.39011 10.68386 28241 ft 474 kts 172°
2026-02-20 08:54 52.35757 10.69368 28497 ft 478 kts 172°
2026-02-20 08:54 52.32477 10.70357 28749 ft 481 kts 171°
2026-02-20 08:54 52.29168 10.71351 29002 ft 485 kts 171°
2026-02-20 08:54 52.25834 10.72347 29255 ft 488 kts 171°
2026-02-20 08:55 52.22478 10.73347 29508 ft 492 kts 171°
2026-02-20 08:55 52.19094 10.74357 29743 ft 495 kts 171°
2026-02-20 08:55 52.15693 10.75372 29974 ft 499 kts 171°
2026-02-20 08:55 52.12271 10.76393 30197 ft 502 kts 171°
2026-02-20 08:56 52.08827 10.77422 30397 ft 505 kts 171°
2026-02-20 08:56 52.05366 10.78454 30568 ft 507 kts 171°
2026-02-20 08:56 52.01888 10.79488 30757 ft 509 kts 171°
2026-02-20 08:56 51.99575 10.80176 30924 ft 509 kts 171°
2026-02-20 08:57 51.96092 10.81209 31196 ft 509 kts 171°
2026-02-20 08:57 51.92600 10.82240 31443 ft 510 kts 171°
2026-02-20 08:57 51.89107 10.83268 31687 ft 511 kts 171°
2026-02-20 08:57 51.85610 10.84300 31934 ft 511 kts 171°
2026-02-20 08:58 51.82102 10.85337 32194 ft 512 kts 171°
2026-02-20 08:58 51.78600 10.86373 32445 ft 512 kts 171°
2026-02-20 08:58 51.75092 10.87409 32690 ft 513 kts 171°
2026-02-20 08:58 51.71579 10.88440 32934 ft 513 kts 171°
2026-02-20 08:59 51.68063 10.89467 33179 ft 514 kts 171°
2026-02-20 08:59 51.64538 10.90466 33410 ft 514 kts 172°
2026-02-20 08:59 51.61000 10.91393 33643 ft 515 kts 173°
2026-02-20 08:59 51.57459 10.92267 33857 ft 516 kts 173°
2026-02-20 09:00 51.53907 10.93120 34076 ft 517 kts 173°
2026-02-20 09:00 51.50350 10.93974 34267 ft 517 kts 173°
2026-02-20 09:00 51.46785 10.94838 34486 ft 517 kts 173°
2026-02-20 09:00 51.43227 10.95714 34715 ft 517 kts 173°
2026-02-20 09:01 51.39677 10.96601 34955 ft 516 kts 172°
2026-02-20 09:01 51.36135 10.97492 35171 ft 515 kts 172°
2026-02-20 09:01 51.29081 10.99268 35248 ft 511 kts 173°
2026-02-20 09:02 51.22065 11.01021 35244 ft 510 kts 172°
2026-02-20 09:02 51.15048 11.02758 35242 ft 510 kts 172°
2026-02-20 09:03 51.08025 11.04497 35248 ft 511 kts 172°
2026-02-20 09:03 51.00991 11.06242 35248 ft 512 kts 172°
2026-02-20 09:04 50.93949 11.07964 35257 ft 512 kts 172°
2026-02-20 09:04 50.86898 11.09680 35253 ft 512 kts 172°
2026-02-20 09:05 50.79845 11.11395 35253 ft 513 kts 172°
2026-02-20 09:05 50.72796 11.13104 35249 ft 512 kts 172°
2026-02-20 09:06 50.65749 11.14815 35245 ft 512 kts 172°
2026-02-20 09:06 50.58705 11.16534 35240 ft 512 kts 172°
2026-02-20 09:07 50.51666 11.18238 35237 ft 512 kts 172°
2026-02-20 09:07 50.44627 11.19920 35237 ft 512 kts 172°
2026-02-20 09:08 50.37590 11.21600 35235 ft 511 kts 172°
2026-02-20 09:08 50.30555 11.23276 35242 ft 511 kts 172°
2026-02-20 09:09 50.23521 11.24943 35243 ft 511 kts 172°
2026-02-20 09:09 50.16494 11.26624 35243 ft 511 kts 172°
2026-02-20 09:10 50.09464 11.28293 35242 ft 511 kts 172°
2026-02-20 09:10 50.02438 11.29948 35238 ft 510 kts 172°
2026-02-20 09:11 49.95464 11.31584 35244 ft 510 kts 172°
2026-02-20 09:11 49.88448 11.33230 35243 ft 510 kts 172°
2026-02-20 09:12 49.81436 11.34867 35241 ft 509 kts 172°
2026-02-20 09:12 49.74433 11.36498 35248 ft 509 kts 172°
2026-02-20 09:13 49.67443 11.38131 35252 ft 508 kts 171°
2026-02-20 09:13 49.60457 11.39752 35259 ft 507 kts 171°
2026-02-20 09:14 49.53471 11.41320 35258 ft 507 kts 173°
2026-02-20 09:14 49.46464 11.42553 35262 ft 506 kts 174°
2026-02-20 09:15 49.39464 11.43617 35259 ft 505 kts 174°
2026-02-20 09:15 49.32470 11.44744 35253 ft 505 kts 174°
2026-02-20 09:16 49.25496 11.45948 35251 ft 504 kts 173°
2026-02-20 09:16 49.18529 11.47160 35251 ft 503 kts 173°
2026-02-20 09:17 49.11567 11.48342 35250 ft 503 kts 174°
2026-02-20 09:17 49.04622 11.49501 35250 ft 502 kts 174°
2026-02-20 09:18 48.97682 11.50667 35247 ft 501 kts 173°
2026-02-20 09:18 48.90750 11.51832 35246 ft 501 kts 173°
2026-02-20 09:19 48.83859 11.52987 35247 ft 500 kts 173°
2026-02-20 09:19 48.76945 11.54135 35248 ft 500 kts 173°
2026-02-20 09:20 48.70038 11.55278 35247 ft 499 kts 173°
2026-02-20 09:20 48.63134 11.56423 35248 ft 498 kts 173°
2026-02-20 09:21 48.56244 11.57565 35248 ft 498 kts 173°
2026-02-20 09:21 48.49360 11.58695 35243 ft 497 kts 174°
2026-02-20 09:22 48.42492 11.59821 35245 ft 496 kts 174°
2026-02-20 09:22 48.35627 11.60944 35245 ft 496 kts 174°
2026-02-20 09:23 48.28775 11.62069 35242 ft 495 kts 173°
2026-02-20 09:23 48.21932 11.63189 35237 ft 495 kts 174°
2026-02-20 09:24 48.15136 11.64293 35231 ft 494 kts 174°
2026-02-20 09:24 48.08296 11.65409 35216 ft 494 kts 174°
2026-02-20 09:25 48.01467 11.66512 35220 ft 494 kts 174°
2026-02-20 09:25 47.94635 11.67615 35219 ft 493 kts 174°
2026-02-20 09:26 47.87808 11.68720 35219 ft 493 kts 174°
2026-02-20 09:26 47.80982 11.69805 35220 ft 493 kts 174°
2026-02-20 09:27 47.74154 11.70890 35213 ft 493 kts 174°
2026-02-20 09:27 47.67318 11.71985 35217 ft 494 kts 173°
2026-02-20 09:28 47.60489 11.73080 35216 ft 493 kts 174°
2026-02-20 09:28 47.53706 11.74154 35214 ft 493 kts 174°
2026-02-20 09:29 47.46880 11.75237 35208 ft 493 kts 174°
2026-02-20 09:29 47.40046 11.76314 35204 ft 493 kts 174°
2026-02-20 09:30 47.33200 11.76811 35198 ft 493 kts 183°
2026-02-20 09:30 47.26345 11.76408 35186 ft 493 kts 182°
2026-02-20 09:31 47.19485 11.76041 35186 ft 493 kts 183°
2026-02-20 09:31 47.12620 11.75658 35170 ft 494 kts 182°
2026-02-20 09:32 47.05802 11.75288 35136 ft 494 kts 182°
2026-02-20 09:32 46.98919 11.74935 35105 ft 494 kts 182°
2026-02-20 09:33 46.92044 11.74568 35095 ft 494 kts 182°
2026-02-20 09:33 46.85164 11.74183 35073 ft 495 kts 182°
2026-02-20 09:34 46.78278 11.73805 35045 ft 495 kts 182°
2026-02-20 09:34 46.71388 11.73442 35030 ft 496 kts 182°
2026-02-20 09:35 46.64501 11.73074 35008 ft 495 kts 182°
2026-02-20 09:35 46.57605 11.72687 34981 ft 495 kts 182°
2026-02-20 09:36 46.50752 11.72295 34964 ft 496 kts 183°
2026-02-20 09:36 46.43856 11.71910 34952 ft 496 kts 182°
2026-02-20 09:37 46.36960 11.71594 34947 ft 496 kts 180°
2026-02-20 09:37 46.30061 11.71800 34941 ft 496 kts 178°
2026-02-20 09:38 46.23163 11.72288 34919 ft 496 kts 177°
2026-02-20 09:38 46.16262 11.72690 34910 ft 496 kts 178°
2026-02-20 09:39 46.09368 11.72973 34901 ft 496 kts 179°
2026-02-20 09:39 46.02477 11.73223 34891 ft 495 kts 179°
2026-02-20 09:40 45.95585 11.73496 34891 ft 495 kts 178°
2026-02-20 09:40 45.88699 11.73799 34895 ft 495 kts 178°
2026-02-20 09:41 45.82981 11.74048 34893 ft 495 kts 178°
2026-02-20 09:41 45.76103 11.74353 34900 ft 494 kts 178°
2026-02-20 09:42 45.69225 11.74643 34913 ft 494 kts 178°
2026-02-20 09:43 45.58912 11.75064 34911 ft 494 kts 178°
2026-02-20 09:43 45.52039 11.75355 34922 ft 494 kts 178°
2026-02-20 09:44 45.45165 11.75648 34921 ft 494 kts 178°
2026-02-20 09:44 45.38339 11.75936 34909 ft 493 kts 178°
2026-02-20 09:45 45.31471 11.76219 34918 ft 493 kts 178°
2026-02-20 09:45 45.24603 11.76500 34915 ft 493 kts 178°
2026-02-20 09:46 45.17747 11.76787 34922 ft 493 kts 178°
2026-02-20 09:46 45.10898 11.77072 34922 ft 492 kts 178°
2026-02-20 09:47 45.04055 11.77360 34930 ft 492 kts 178°
2026-02-20 09:47 44.97225 11.77643 34933 ft 491 kts 178°
2026-02-20 09:48 44.90394 11.77920 34927 ft 490 kts 178°
2026-02-20 09:48 44.83578 11.78198 34937 ft 490 kts 178°
2026-02-20 09:49 44.76762 11.78477 34940 ft 490 kts 178°
2026-02-20 09:49 44.69950 11.78752 34946 ft 489 kts 178°
2026-02-20 09:50 44.63146 11.79030 34947 ft 489 kts 178°
2026-02-20 09:50 44.56347 11.79311 34936 ft 489 kts 179°
2026-02-20 09:51 44.49545 11.79587 34939 ft 489 kts 178°
2026-02-20 09:51 44.42749 11.79872 34950 ft 489 kts 179°
2026-02-20 09:52 44.35947 11.80155 34948 ft 489 kts 179°
2026-02-20 09:52 44.29152 11.80426 34936 ft 489 kts 179°
2026-02-20 09:53 44.22356 11.80696 34949 ft 488 kts 179°
2026-02-20 09:53 44.18966 11.80829 34644 ft 486 kts 179°
2026-02-20 09:53 44.15599 11.80957 34209 ft 482 kts 178°
2026-02-20 09:53 44.12261 11.81081 33766 ft 478 kts 178°
2026-02-20 09:54 44.08944 11.81207 33291 ft 474 kts 178°
2026-02-20 09:54 44.05709 11.81336 32844 ft 469 kts 178°
2026-02-20 09:54 44.02425 11.81471 31724 ft 479 kts 178°
2026-02-20 09:54 43.99054 11.81613 30661 ft 488 kts 178°
2026-02-20 09:55 43.95655 11.81757 29818 ft 489 kts 178°
2026-02-20 09:55 43.92263 11.81898 29031 ft 486 kts 178°
2026-02-20 09:55 43.88877 11.82032 28476 ft 488 kts 178°
2026-02-20 09:55 43.85484 11.82163 27919 ft 489 kts 178°
2026-02-20 09:56 43.82083 11.82294 27377 ft 489 kts 178°
2026-02-20 09:56 43.78680 11.82478 26841 ft 489 kts 174°
2026-02-20 09:56 43.75325 11.83194 26323 ft 488 kts 166°
2026-02-20 09:56 43.72020 11.84270 25802 ft 488 kts 165°
2026-02-20 09:57 43.68718 11.85340 25307 ft 488 kts 166°
2026-02-20 09:57 43.65413 11.86396 24802 ft 488 kts 166°
2026-02-20 09:57 43.62108 11.87439 24316 ft 485 kts 166°
2026-02-20 09:57 43.58831 11.88469 23836 ft 481 kts 166°
2026-02-20 09:58 43.55572 11.89496 23327 ft 478 kts 166°
2026-02-20 09:58 43.52344 11.90518 22767 ft 474 kts 166°
2026-02-20 09:58 43.49139 11.91536 22197 ft 471 kts 166°
2026-02-20 09:58 43.45959 11.92548 21656 ft 468 kts 166°
2026-02-20 09:59 43.42796 11.93557 21115 ft 465 kts 166°
2026-02-20 09:59 43.39699 11.94545 20593 ft 462 kts 167°
2026-02-20 09:59 43.36582 11.95537 20069 ft 459 kts 167°
2026-02-20 09:59 43.33474 11.96523 19564 ft 456 kts 167°
2026-02-20 10:00 43.30397 11.97492 19057 ft 453 kts 167°
2026-02-20 10:00 43.27330 11.98455 18561 ft 450 kts 167°
2026-02-20 10:00 43.24291 11.99407 18057 ft 447 kts 167°
2026-02-20 10:00 43.21266 12.00354 17484 ft 443 kts 167°
2026-02-20 10:01 43.18286 12.01288 16788 ft 436 kts 167°
2026-02-20 10:01 43.15346 12.02210 16436 ft 435 kts 167°
2026-02-20 10:01 43.12391 12.03136 16041 ft 435 kts 167°
2026-02-20 10:01 43.09448 12.04064 15653 ft 433 kts 167°
2026-02-20 10:02 43.06520 12.04987 15262 ft 431 kts 167°
2026-02-20 10:02 43.03602 12.05902 14880 ft 429 kts 167°
2026-02-20 10:02 43.00696 12.06809 14509 ft 427 kts 167°
2026-02-20 10:02 42.97794 12.07584 14018 ft 421 kts 173°
2026-02-20 10:03 42.94917 12.08054 13640 ft 408 kts 174°
2026-02-20 10:03 42.92162 12.08456 13466 ft 389 kts 175°
2026-02-20 10:03 42.89512 12.08814 13099 ft 377 kts 175°
2026-02-20 10:03 42.86936 12.09151 12791 ft 366 kts 175°
2026-02-20 10:04 42.84445 12.09484 12525 ft 354 kts 175°
2026-02-20 10:04 42.82032 12.09816 12257 ft 343 kts 175°
2026-02-20 10:04 42.79688 12.10145 11991 ft 334 kts 175°
2026-02-20 10:04 42.77410 12.10466 11735 ft 325 kts 175°
2026-02-20 10:05 42.75187 12.10782 11476 ft 318 kts 175°
2026-02-20 10:05 42.73001 12.11090 11209 ft 314 kts 175°
2026-02-20 10:05 42.70830 12.11394 10949 ft 313 kts 175°
2026-02-20 10:05 42.68667 12.11699 10692 ft 312 kts 175°
2026-02-20 10:06 42.66508 12.12005 10436 ft 311 kts 175°
2026-02-20 10:06 42.64363 12.12309 10183 ft 309 kts 175°
2026-02-20 10:06 42.62228 12.12609 9932 ft 308 kts 175°
2026-02-20 10:06 42.60102 12.12909 9679 ft 307 kts 175°
2026-02-20 10:07 42.58012 12.13206 9408 ft 305 kts 174°
2026-02-20 10:07 42.55907 12.13504 9141 ft 303 kts 174°
2026-02-20 10:07 42.53810 12.13798 8866 ft 302 kts 175°
2026-02-20 10:07 42.51726 12.14089 8586 ft 300 kts 174°
2026-02-20 10:08 42.49656 12.14379 8325 ft 298 kts 174°
2026-02-20 10:08 42.47601 12.14666 8070 ft 296 kts 174°
2026-02-20 10:08 42.45556 12.14953 7812 ft 294 kts 174°
2026-02-20 10:08 42.43526 12.15239 7553 ft 292 kts 174°
2026-02-20 10:09 42.41506 12.15522 7341 ft 291 kts 174°
2026-02-20 10:09 42.39493 12.15803 7159 ft 290 kts 175°
2026-02-20 10:09 42.37482 12.16085 6983 ft 290 kts 174°
2026-02-20 10:09 42.35475 12.16365 6809 ft 289 kts 174°
2026-02-20 10:10 42.33475 12.16644 6639 ft 289 kts 174°
2026-02-20 10:10 42.31484 12.16923 6462 ft 287 kts 174°
2026-02-20 10:10 42.29501 12.17204 6298 ft 286 kts 175°
2026-02-20 10:10 42.27528 12.17483 6117 ft 285 kts 174°
2026-02-20 10:11 42.25563 12.17759 5939 ft 283 kts 175°
2026-02-20 10:11 42.23609 12.18032 5774 ft 282 kts 175°
2026-02-20 10:11 42.21666 12.18303 5595 ft 281 kts 175°
2026-02-20 10:11 42.19753 12.18569 5412 ft 279 kts 175°
2026-02-20 10:12 42.17798 12.18842 5245 ft 279 kts 175°
2026-02-20 10:12 42.15879 12.19108 5065 ft 276 kts 175°
2026-02-20 10:12 42.13989 12.19222 4894 ft 274 kts 182°
2026-02-20 10:12 42.12084 12.19186 4712 ft 273 kts 182°
2026-02-20 10:13 42.10216 12.19158 4531 ft 264 kts 182°
2026-02-20 10:13 42.08458 12.19136 4354 ft 256 kts 182°
2026-02-20 10:13 42.06703 12.19113 4160 ft 248 kts 182°
2026-02-20 10:13 42.05010 12.19090 3903 ft 239 kts 182°
2026-02-20 10:14 42.03376 12.19067 3645 ft 232 kts 182°
2026-02-20 10:14 42.01770 12.19077 3449 ft 229 kts 176°
2026-02-20 10:14 42.00232 12.19547 3271 ft 222 kts 164°
2026-02-20 10:14 41.98784 12.20174 2987 ft 216 kts 163°
2026-02-20 10:15 41.97369 12.20783 2695 ft 208 kts 163°
2026-02-20 10:15 41.96081 12.21328 2444 ft 184 kts 163°
2026-02-20 10:15 41.94922 12.21815 2199 ft 165 kts 163°
2026-02-20 10:15 41.93870 12.22257 1983 ft 153 kts 163°
2026-02-20 10:16 41.92872 12.22676 1779 ft 148 kts 163°
2026-02-20 10:16 41.91905 12.23082 1582 ft 144 kts 163°
2026-02-20 10:16 41.90956 12.23481 1390 ft 142 kts 163°
2026-02-20 10:16 41.90012 12.23877 1193 ft 142 kts 163°
2026-02-20 10:17 41.89069 12.24273 997 ft 142 kts 162°
2026-02-20 10:17 41.88126 12.24668 805 ft 143 kts 162°
2026-02-20 10:17 41.87162 12.25072 614 ft 147 kts 162°
2026-02-20 10:17 41.86185 12.25481 398 ft 151 kts 162°
2026-02-20 10:18 41.85171 12.25907 220 ft 154 kts 161°
2026-02-20 10:18 41.84139 12.26343 40 ft 155 kts 161°
2026-02-20 10:18 41.83480 12.26626 15 ft 137 kts 161°
2026-02-20 10:18 41.83197 12.26743 11 ft 125 kts 163°
2026-02-20 10:19 41.82172 12.27150 10 ft 38 kts 180°
2026-02-20 10:19 41.81975 12.27115 11 ft 14 kts 192°
2026-02-20 10:19 41.81958 12.27110 11 ft 2 kts 191°
2026-02-20 10:19 41.81938 12.27104 11 ft 4 kts 191°
2026-02-20 10:20 41.81903 12.27095 11 ft 6 kts 191°
2026-02-20 10:20 41.81858 12.27083 11 ft 7 kts 191°
2026-02-20 10:20 41.81804 12.27068 13 ft 9 kts 191°
2026-02-20 10:20 41.81739 12.27050 12 ft 10 kts 192°
2026-02-20 10:21 41.81663 12.27052 12 ft 12 kts 168°
2026-02-20 10:21 41.81581 12.27088 12 ft 13 kts 161°
2026-02-20 10:21 41.81489 12.27129 12 ft 15 kts 162°
2026-02-20 10:21 41.81386 12.27173 12 ft 16 kts 163°
2026-02-20 10:22 41.81275 12.27219 14 ft 18 kts 162°
2026-02-20 10:22 41.81153 12.27269 12 ft 19 kts 163°
2026-02-20 10:22 41.81023 12.27323 12 ft 20 kts 163°
2026-02-20 10:22 41.80883 12.27344 13 ft 21 kts 189°
2026-02-20 10:23 41.80735 12.27311 13 ft 22 kts 191°
2026-02-20 10:23 41.80639 12.27162 14 ft 23 kts 250°
2026-02-20 10:23 41.80583 12.26960 14 ft 24 kts 250°
2026-02-20 10:23 41.80526 12.26750 14 ft 24 kts 250°
2026-02-20 10:24 41.80467 12.26538 15 ft 22 kts 250°
2026-02-20 10:24 41.80415 12.26386 15 ft 14 kts 222°
2026-02-20 10:24 41.80314 12.26388 14 ft 16 kts 158°
2026-02-20 10:24 41.80201 12.26396 14 ft 17 kts 199°
2026-02-20 10:25 41.80086 12.26325 15 ft 19 kts 205°
2026-02-20 10:25 41.79963 12.26248 15 ft 20 kts 205°
2026-02-20 10:25 41.79830 12.26167 15 ft 20 kts 204°
2026-02-20 10:25 41.79748 12.26105 14 ft 14 kts 214°
2026-02-20 10:26 41.79669 12.26052 15 ft 10 kts 205°
2026-02-20 10:26 41.79650 12.26006 14 ft 6 kts 294°
2026-02-20 10:26 41.79661 12.25973 15 ft 3 kts 295°
2026-02-20 10:26 41.79662 12.25971 15 ft 0 kts 295°